Content
SEND FEEDBACK

Daily
Averages
Monthly
Summary
United States of America

FLASHER, NORTH DAKOTA


Home > North America > United States > North Dakota
Elevation: 1930 feet     Latitude: 46 27N     Longitude: 101 14W

WEATHER
 
SELECT A DAY
Number of Records: 92,051;   Date Range: 11/18/10 - 12/17/14
 
SHARE

PRINT THIS DATA

[ ← Previous Day ]
WEATHER ALMANAC - JANUARY 23, 2013
[ Next Day → ]
[ °C ]   °F
Weather ElementAverageHighLow
Temperature2.9 °F10.4 °F (12:35 am)-0.4 °F (4:55 pm)
Dewpoint-2 °F6.8 °F (12:35 am)-7.6 °F (6:35 pm)
Humidity80.4 %92 % (12:55 am)72 % (6:35 pm)
Barometer30.35 in30.48 in (9:35 pm)30.12 in (12:35 am)
Wind Speed10.9 mph17.3 mph (9:55 am)
Wind Gust20.7 mph (10:15 am)
Weather ElementAverage
Visibility10 mi
Wind DirectionSW (219.6 °)

Weather ElementTotal
Precipitation---
Heating Degree Days60 (Base 65)
Averaged from 68 records on January 23, 2013
WEATHER CONDITIONS BREAKOUT
WIND DIRECTION BREAKOUT
WEATHER BY HOUR - JANUARY 23, 2013
[ °C ]   °F
Local TimeTemperatureDewpointHumidityBarometerVisibilityWind DirectionWind SpeedGust SpeedPrecipitationEventsConditions
12:35 AM10.4 °F6.8 °F85 %30.12 in10.0 miNW (320°)11.5 mphOvercast
12:55 AM8.6 °F6.8 °F92 %30.13 in10.0 miNW (310°)10.4 mphOvercast
1:15 AM8.6 °F6.8 °F92 %30.13 in10.0 miWNW (300°)9.2 mphMostly Cloudy
1:35 AM8.6 °F6.8 °F92 %30.13 in10.0 miNW (310°)10.4 mphMostly Cloudy
1:55 AM8.6 °F6.8 °F92 %30.14 in10.0 miNW (310°)11.5 mphMostly Cloudy
2:15 AM10.4 °F6.8 °F85 %30.14 in10.0 miNW (310°)10.4 mphMostly Cloudy
2:35 AM10.4 °F6.8 °F85 %30.15 in10.0 miNW (320°)11.5 mphScattered Clouds
2:55 AM10.4 °F6.8 °F85 %30.17 in10.0 miNW (320°)11.5 mphMostly Cloudy
3:15 AM8.6 °F6.8 °F92 %30.17 in10.0 miNW (320°)10.4 mphMostly Cloudy
3:35 AM8.6 °F6.8 °F92 %30.17 in10.0 miNNW (330°)11.5 mphScattered Clouds
3:55 AM8.6 °F5.0 °F85 %30.18 in10.0 miNW (310°)11.5 mphMostly Cloudy
4:15 AM8.6 °F5.0 °F85 %30.18 in10.0 miNW (320°)11.5 mphOvercast
4:35 AM6.8 °F5.0 °F92 %30.19 in10.0 miNNW (330°)11.5 mphOvercast
4:55 AM6.8 °F3.2 °F85 %30.19 in10.0 miNW (320°)9.2 mphMostly Cloudy
5:15 AM6.8 °F1.4 °F79 %30.21 in10.0 miNW (320°)10.4 mphPartly Cloudy
5:55 AM6.8 °F1.4 °F79 %30.23 in10.0 miNW (320°)13.8 mphMostly Cloudy
6:35 AM5.0 °F-0.4 °F78 %30.25 in10.0 miNW (320°)13.8 mphPartly Cloudy
6:55 AM5.0 °F-0.4 °F78 %30.25 in10.0 miNW (320°)12.7 mphClear
7:15 AM3.2 °F-0.4 °F85 %30.26 in10.0 miNW (320°)10.4 mphClear
7:55 AM3.2 °F-0.4 °F85 %30.29 in10.0 miNNW (330°)10.4 mphClear
8:15 AM1.4 °F-0.4 °F92 %30.29 in10.0 miNNW (330°)10.4 mphClear
8:35 AM3.2 °F-0.4 °F85 %30.30 in10.0 miNNW (330°)11.5 mphClear
8:55 AM3.2 °F-0.4 °F85 %30.31 in10.0 miNNW (330°)12.7 mphClear
9:15 AM1.4 °F-0.4 °F92 %30.32 in10.0 miNNW (330°)13.8 mphClear
9:35 AM3.2 °F-0.4 °F85 %30.33 in10.0 miNorth (350°)11.5 mphClear
9:55 AM3.2 °F-2.2 °F78 %30.35 in10.0 miNorth (350°)17.3 mphPartly Cloudy
10:15 AM3.2 °F-2.2 °F78 %30.36 in10.0 miNorth (360°)15.0 mph20.7 mphPartly Cloudy
10:35 AM3.2 °F-2.2 °F78 %30.38 in10.0 miNorth (360°)17.3 mphPartly Cloudy
10:55 AM3.2 °F-2.2 °F78 %30.38 in10.0 miNorth (360°)16.1 mphClear
11:15 AM3.2 °F-2.2 °F78 %30.39 in10.0 miNorth (10°)12.7 mphPartly Cloudy
11:35 AM1.4 °F-2.2 °F85 %30.41 in10.0 miNorth (10°)16.1 mphClear
11:55 AM1.4 °F-4.0 °F78 %30.41 in10.0 miNorth (360°)13.8 mphPartly Cloudy
12:15 PM1.4 °F-4.0 °F78 %30.40 in10.0 miNorth (10°)11.5 mphClear
12:35 PM1.4 °F-4.0 °F78 %30.41 in10.0 miNorth (10°)10.4 mphClear
12:55 PM1.4 °F-4.0 °F78 %30.41 in10.0 miNorth (360°)11.5 mphClear
1:15 PM1.4 °F-4.0 °F78 %30.41 in10.0 miNorth (350°)8.1 mphPartly Cloudy
1:35 PM1.4 °F-4.0 °F78 %30.41 in10.0 miNorth (360°)9.2 mphScattered Clouds
1:55 PM1.4 °F-4.0 °F78 %30.41 in10.0 miNorth (350°)6.9 mphPartly Cloudy
2:15 PM1.4 °F-4.0 °F78 %30.42 in10.0 miNorth (360°)8.1 mphPartly Cloudy
2:35 PM1.4 °F-4.0 °F78 %30.43 in10.0 miNorth (350°)6.9 mphClear
2:55 PM1.4 °F-4.0 °F78 %30.43 in10.0 miNNW (330°)6.9 mphClear
3:15 PM1.4 °F-4.0 °F78 %30.44 in10.0 miNorth (350°)9.2 mphClear
3:35 PM1.4 °F-4.0 °F78 %30.44 in10.0 miNorth (10°)9.2 mphClear
3:55 PM1.4 °F-4.0 °F78 %30.44 in10.0 miNorth (10°)8.1 mphClear
4:15 PM1.4 °F-4.0 °F78 %30.44 in10.0 miNNE (30°)10.4 mphClear
4:35 PM1.4 °F-4.0 °F78 %30.44 in10.0 miNE (40°)9.2 mphClear
4:55 PM-0.4 °F-4.0 °F85 %30.44 in10.0 miNE (40°)10.4 mphClear
5:15 PM-0.4 °F-5.8 °F78 %30.44 in10.0 miNE (40°)10.4 mphClear
5:35 PM-0.4 °F-5.8 °F78 %30.44 in10.0 miNNE (30°)9.2 mphClear
5:55 PM-0.4 °F-5.8 °F78 %30.44 in10.0 miNE (50°)8.1 mphScattered Clouds
6:15 PM-0.4 °F-5.8 °F78 %30.44 in10.0 miENE (60°)5.8 mphOvercast
6:35 PM-0.4 °F-7.6 °F72 %30.45 in10.0 miENE (60°)8.1 mphOvercast
6:55 PM-0.4 °F-7.6 °F72 %30.45 in10.0 miEast (90°)8.1 mphOvercast
7:15 PM-0.4 °F-7.6 °F72 %30.46 in10.0 miEast (100°)8.1 mphOvercast
7:35 PM-0.4 °F-7.6 °F72 %30.45 in10.0 miEast (100°)8.1 mphMostly Cloudy
7:55 PM-0.4 °F-7.6 °F72 %30.46 in10.0 miEast (100°)9.2 mphOvercast
8:15 PM-0.4 °F-7.6 °F72 %30.45 in10.0 miEast (100°)8.1 mphOvercast
8:35 PM-0.4 °F-7.6 °F72 %30.45 in10.0 miESE (120°)10.4 mphOvercast
8:55 PM-0.4 °F-5.8 °F78 %30.46 in10.0 miESE (120°)10.4 mphOvercast
9:15 PM-0.4 °F-5.8 °F78 %30.47 in10.0 miESE (120°)10.4 mphOvercast
9:35 PM-0.4 °F-5.8 °F78 %30.48 in10.0 miSE (130°)9.2 mphOvercast
9:55 PM-0.4 °F-5.8 °F78 %30.46 in10.0 miSE (130°)12.7 mphOvercast
10:15 PM-0.4 °F-5.8 °F78 %30.43 in10.0 miESE (120°)13.8 mphOvercast
10:35 PM-0.4 °F-5.8 °F78 %30.43 in10.0 miESE (120°)11.5 mphOvercast
10:55 PM-0.4 °F-7.6 °F72 %30.45 in10.0 miSE (140°)11.5 mphOvercast
11:15 PM-0.4 °F-7.6 °F72 %30.44 in10.0 miSE (130°)12.7 mphOvercast
11:35 PM-0.4 °F-7.6 °F72 %30.43 in10.0 miSE (140°)13.8 mphMostly Cloudy
11:55 PM-0.4 °F-7.6 °F72 %30.43 in10.0 miSE (130°)13.8 mphMostly Cloudy
Hourly data recorded from KY19, located miles away from Flasher, North Dakota







STORIES FROM OUR PARTNERS